Weather in Schwerin

Germany     53˚38′11″N   11˚24′07″E
temp.,
°C
wind,
m/s
gust,
m/s
humid.,
%
clouds,
%
prec.,
mm/h
press.,
hPa
HPBL,
m
29 november, sun
sun2901:00+3˚n248386 0.0 102787
04:00+4˚nne1183100 0.0 102722
07:00+4˚ene1175100 0.0 102723
10:00+4˚nne1179100 0.0 102746
13:00+5˚n347995 0.1 1027623
16:00+2˚n358670 0.1 1026199
19:00+3˚nnw358084 0.1 1027440
22:00+3˚nw2480100 0.0 1026331
30 november, mon
mon3001:00+3˚wnw2582100 0.1 1026259
04:00+2˚wnw3582100 0.0 1025333
07:00+2˚w3581100 0.0 1025313
10:00+1˚w358192 0.0 1025231
13:00+3˚sw457849 0.0 1023455
16:00+1˚ssw378632 0.0 1020248
19:00+1˚ssw5108266 0.0 1018359
22:00+2˚ssw61173100 0.0 1015398
1 december, tue
tue101:00+2˚s61183100 0.1 1012416
04:00+2˚s51087100 0.2 1011385
07:00+2˚sse4889100 0.7 1011345
10:00+2˚se4690100 0.1 1013294
13:00+3˚ese3586100 0.1 1015336
16:00+2˚e3588100 0.1 1017322
19:00+2˚e4686100 0.4 1020324
22:00+2˚ese368886 0.0 1021242
2 december, wed
wed201:00e359559 0.0 1022115
04:00−1˚e239724 0.0 102185
07:00+1˚ese259249 0.0 1021203
10:00+2˚ese358398 0.0 1020297
13:00+3˚se357696 0.0 1019304
16:00+1˚se238681 0.0 101782
19:00sse358976 0.0 1016140
22:00−1˚sse358953 0.0 1015152
3 december, thu
thu301:00−2˚s349029 0.0 101495
04:00−2˚sse359319 0.0 1012126
07:00−2˚sse369326 0.0 1010174
10:00sse4687100 0.0 1009190
13:00+2˚sse4782100 0.0 1007301
16:00sse4692100 0.0 1006144
19:00−1˚se599588 0.0 1005208
22:00−1˚se4109243 0.0 1004282